Home > Time Zones > World Clock > Weather > Oman > Seeb > Past weeks

Flag for Oman Weather past 2 weeks in Seeb, Oman

Now
88 °F

Clear.


Feels Like: 108 °F
Forecast: 90 / 100 °F
Wind: No wind

Location: International Airport

Current Time: Jul 23, 2014 at 2:27:45 AM

Latest Report: Jul 22, 2014 at 8:50 PM


Visibility: 4 mi

Pressure: 29.45 "Hg

Humidity: 84%

Dew point: 82 °F

Location of SeebLocation

Historic Weather in Seeb — Graph

°F

Seeb temperature yesterday

Maximum temperature yesterday: 91 °F (at 10:50 AM)
Minimum temperature yesterday: 84 °F (at 4:50 AM)
Average temperature yesterday: 88 °F

Past Weeks' High & Low Weather Summary

 TemperatureHumidityPressure
High108 °F (Jul 16, 9:50 AM)100% (Jul 22, 4:50 AM)29.56 "Hg (Jul 22, 4:50 AM)
Low82 °F (Jul 15, 2:50 AM)22% (Jul 17, 8:50 AM)29.33 "Hg (Jul 17, 1:50 AM)
Average91 °F72%29.44 "Hg
* Reported Jul 7 8:50 PM — Jul 22 8:50 PM, Seeb, Weather by CustomWeather, © 2014

Note: Actual official high and low records may vary slightly from our data, if they occured in-between our weather recording intervals... More about our weather records

Advertising

Seeb weather history for previous 24 hours

 ConditionsComfort  
Time TempWeatherWind HumidityBarometerVisibility
8:50 PM
Jul 22
88 °FClear.No wind84%29.45 "Hg4 mi
7:50 PM88 °FClear.8 mph84%29.42 "Hg4 mi
6:50 PM88 °FClear.14 mph84%29.42 "Hg4 mi
5:50 PM88 °FPassing clouds.15 mph84%29.39 "Hg4 mi
4:50 PM88 °FPassing clouds.14 mph84%29.42 "Hg4 mi
3:50 PM90 °FPassing clouds.12 mph79%29.42 "Hg4 mi
2:50 PM90 °FPassing clouds.14 mph79%29.42 "Hg4 mi
1:50 PM91 °FClear.14 mph75%29.45 "Hg4 mi
12:50 PM91 °FHaze.9 mph75%29.45 "Hg3 mi
11:50 AM91 °FHaze.9 mph80%29.47 "Hg3 mi
10:50 AM91 °FHaze.8 mph80%29.50 "Hg3 mi
9:50 AM90 °FHaze.9 mph84%29.50 "Hg3 mi
8:50 AM90 °FHaze.6 mph84%29.50 "Hg3 mi
7:50 AM88 °FHaze.5 mph89%29.47 "Hg3 mi
6:50 AM86 °FScattered clouds.6 mph94%29.47 "Hg4 mi
5:50 AM84 °FFog.5 mph94%29.45 "Hg2 mi
4:50 AM84 °FFog.2 mph100%29.45 "Hg2 mi
3:50 AM86 °FFog.3 mph94%29.42 "Hg3 mi
2:50 AM86 °FPassing clouds.5 mph94%29.42 "Hg4 mi
Weather by CustomWeather, © 2014

See weather overviewHow to use our weather pages